Time,TemperatureF,DewpointF,PressureIn,WindDirection,WindDirectionDegrees,WindSpeedMPH,WindSpeedGustMPH,Humidity,HourlyPrecipIn,Conditions,Clouds,dailyrainin,SoftwareType,DateUTC
2013-10-01 00:08:00,48.6,45.0,29.87,South,182,2.0,5.0,87,0.00,,,0.06,weatherlink.com 1.10,2013-10-01 07:08:00,
2013-10-01 00:23:00,48.6,45.0,29.87,South,180,0.0,7.0,86,0.00,,,0.06,weatherlink.com 1.10,2013-10-01 07:23:00,
2013-10-01 00:38:00,49.0,45.0,29.87,South,191,1.0,8.0,85,0.00,,,0.06,weatherlink.com 1.10,2013-10-01 07:38:00,
2013-10-01 00:53:00,49.2,45.0,29.87,SSE,161,0.0,8.0,85,0.00,,,0.06,weatherlink.com 1.10,2013-10-01 07:53:00,
2013-10-01 01:09:00,49.5,45.0,29.88,South,186,3.0,14.0,84,0.00,,,0.00,weatherlink.com 1.10,2013-10-01 08:09:00,
2013-10-01 01:24:00,49.5,45.0,29.88,SSE,163,0.0,11.0,83,0.00,,,0.00,weatherlink.com 1.10,2013-10-01 08:24:00,
2013-10-01 01:39:00,49.7,44.0,29.88,South,174,5.0,12.0,82,0.00,,,0.00,weatherlink.com 1.10,2013-10-01 08:39:00,
2013-10-01 01:54:00,49.5,45.0,29.88,South,188,7.0,12.0,83,0.00,,,0.00,weatherlink.com 1.10,2013-10-01 08:54:00,
2013-10-01 02:09:00,49.2,45.0,29.88,South,188,16.0,16.0,84,0.00,,,0.00,weatherlink.com 1.10,2013-10-01 09:09:00,
2013-10-01 02:24:00,49.0,44.0,29.88,South,190,7.0,12.0,84,0.00,,,0.00,weatherlink.com 1.10,2013-10-01 09:24:00,
2013-10-01 02:39:00,49.0,44.0,29.88,SE,134,3.0,9.0,84,0.00,,,0.00,weatherlink.com 1.10,2013-10-01 09:39:00,
2013-10-01 02:54:00,48.6,44.0,29.88,SE,139,0.0,4.0,85,0.00,,,0.00,weatherlink.com 1.10,2013-10-01 09:54:00,
2013-10-01 03:09:00,48.3,44.0,29.88,SSW,199,0.0,4.0,85,0.00,,,0.00,weatherlink.com 1.10,2013-10-01 10:09:00,
2013-10-01 03:24:00,48.1,44.0,29.88,ESE,118,0.0,2.0,86,0.00,,,0.00,weatherlink.com 1.10,2013-10-01 10:24:00,
2013-10-01 03:39:00,48.0,44.0,29.88,ENE,60,0.0,6.0,87,0.00,,,0.00,weatherlink.com 1.10,2013-10-01 10:39:00,
2013-10-01 03:54:00,48.1,45.0,29.88,North,355,0.0,3.0,88,0.00,,,0.00,weatherlink.com 1.10,2013-10-01 10:54:00,
2013-10-01 04:09:00,48.2,45.0,29.88,South,186,0.0,5.0,88,0.00,,,0.00,weatherlink.com 1.10,2013-10-01 11:09:00,
2013-10-01 04:24:00,48.2,45.0,29.88,SE,128,0.0,3.0,88,0.00,,,0.00,weatherlink.com 1.10,2013-10-01 11:24:00,
2013-10-01 04:39:00,48.1,45.0,29.88,ESE,117,0.0,5.0,89,0.00,,,0.00,weatherlink.com 1.10,2013-10-01 11:39:00,
2013-10-01 04:54:00,47.9,45.0,29.88,SSE,161,0.0,6.0,89,0.00,,,0.00,weatherlink.com 1.10,2013-10-01 11:54:00,
2013-10-01 05:09:00,47.7,45.0,29.88,ESE,121,0.0,5.0,89,0.00,,,0.00,weatherlink.com 1.10,2013-10-01 12:09:00,
2013-10-01 05:24:00,47.7,44.0,29.88,SE,124,0.0,3.0,88,0.00,,,0.00,weatherlink.com 1.10,2013-10-01 12:24:00,
2013-10-01 05:39:00,47.7,45.0,29.89,South,185,0.0,3.0,89,0.00,,,0.00,weatherlink.com 1.10,2013-10-01 12:39:00,
2013-10-01 05:54:00,47.6,45.0,29.88,SE,146,0.0,4.0,89,0.00,,,0.00,weatherlink.com 1.10,2013-10-01 12:54:00,
2013-10-01 06:09:00,47.4,44.0,29.89,SSE,167,0.0,1.0,89,0.00,,,0.00,weatherlink.com 1.10,2013-10-01 13:09:00,
2013-10-01 06:24:00,47.1,44.0,29.89,West,265,0.0,2.0,89,0.00,,,0.00,weatherlink.com 1.10,2013-10-01 13:24:00,
2013-10-01 06:39:00,46.7,44.0,29.89,NE,44,0.0,3.0,89,0.00,,,0.00,weatherlink.com 1.10,2013-10-01 13:39:00,
2013-10-01 06:54:00,46.4,43.0,29.89,SSW,204,0.0,1.0,89,0.00,,,0.00,weatherlink.com 1.10,2013-10-01 13:54:00,
2013-10-01 07:09:00,46.2,44.0,29.90,NE,35,0.0,3.0,90,0.00,,,0.00,weatherlink.com 1.10,2013-10-01 14:09:00,
2013-10-01 07:24:00,46.2,44.0,29.91,SE,137,0.0,1.0,90,0.00,,,0.00,weatherlink.com 1.10,2013-10-01 14:24:00,
2013-10-01 07:39:00,46.2,44.0,29.91,SE,137,0.0,0.0,90,0.00,,,0.00,weatherlink.com 1.10,2013-10-01 14:39:00,
2013-10-01 07:54:00,46.1,44.0,29.91,SE,137,0.0,0.0,91,0.00,,,0.00,weatherlink.com 1.10,2013-10-01 14:54:00,
2013-10-01 08:09:00,46.3,44.0,29.91,SE,137,0.0,0.0,90,0.00,,,0.00,weatherlink.com 1.10,2013-10-01 15:09:00,
2013-10-01 08:24:00,46.7,44.0,29.92,SE,136,0.0,1.0,90,0.00,,,0.00,weatherlink.com 1.10,2013-10-01 15:24:00,
2013-10-01 08:39:00,47.3,44.0,29.93,SE,136,0.0,1.0,89,0.01,,,0.01,weatherlink.com 1.10,2013-10-01 15:39:00,
2013-10-01 08:54:00,47.3,45.0,29.93,SE,136,0.0,0.0,90,0.05,,,0.05,weatherlink.com 1.10,2013-10-01 15:54:00,
2013-10-01 09:09:00,46.9,45.0,29.94,South,171,3.0,4.0,92,0.09,,,0.09,weatherlink.com 1.10,2013-10-01 16:09:00,
2013-10-01 09:24:00,46.8,45.0,29.94,South,178,0.0,1.0,93,0.14,,,0.14,weatherlink.com 1.10,2013-10-01 16:24:00,
2013-10-01 09:39:00,46.5,45.0,29.93,NW,318,0.0,2.0,93,0.17,,,0.18,weatherlink.com 1.10,2013-10-01 16:39:00,
2013-10-01 09:54:00,47.2,46.0,29.94,ENE,67,0.0,3.0,95,0.13,,,0.18,weatherlink.com 1.10,2013-10-01 16:54:00,
2013-10-01 10:09:00,48.7,47.0,29.94,NE,53,0.0,5.0,95,0.09,,,0.18,weatherlink.com 1.10,2013-10-01 17:09:00,
2013-10-01 10:24:00,49.6,48.0,29.94,ENE,70,0.0,1.0,95,0.04,,,0.18,weatherlink.com 1.10,2013-10-01 17:24:00,
2013-10-01 10:39:00,50.1,48.0,29.94,ESE,114,0.0,5.0,93,0.00,,,0.18,weatherlink.com 1.10,2013-10-01 17:39:00,
2013-10-01 10:54:00,50.9,49.0,29.95,NE,35,0.0,3.0,92,0.00,,,0.18,weatherlink.com 1.10,2013-10-01 17:54:00,
2013-10-01 11:09:00,50.8,48.0,29.95,NNE,16,0.0,5.0,90,0.00,,,0.18,weatherlink.com 1.10,2013-10-01 18:09:00,
2013-10-01 11:24:00,50.8,48.0,29.95,SSE,153,0.0,2.0,90,0.00,,,0.18,weatherlink.com 1.10,2013-10-01 18:24:00,
2013-10-01 11:39:00,51.0,48.0,29.95,SE,133,1.0,6.0,90,0.00,,,0.18,weatherlink.com 1.10,2013-10-01 18:39:00,
2013-10-01 11:55:00,51.2,48.0,29.95,South,182,1.0,8.0,89,0.00,,,0.18,weatherlink.com 1.10,2013-10-01 18:55:00,
2013-10-01 12:12:00,51.7,48.0,29.96,SSW,194,13.0,13.0,86,0.00,,,0.18,weatherlink.com 1.10,2013-10-01 19:12:00,
2013-10-01 12:25:00,51.8,48.0,29.96,South,186,2.0,9.0,85,0.00,,,0.18,weatherlink.com 1.10,2013-10-01 19:25:00,
2013-10-01 12:40:00,52.2,48.0,29.97,SSE,148,0.0,13.0,85,0.00,,,0.18,weatherlink.com 1.10,2013-10-01 19:40:00,
2013-10-01 12:55:00,53.2,48.0,29.97,South,185,3.0,14.0,81,0.00,,,0.18,weatherlink.com 1.10,2013-10-01 19:55:00,
2013-10-01 13:10:00,53.8,47.0,29.96,South,185,4.0,11.0,78,0.00,,,0.18,weatherlink.com 1.10,2013-10-01 20:10:00,
2013-10-01 13:25:00,54.5,45.0,29.97,South,171,0.0,12.0,70,0.00,,,0.18,weatherlink.com 1.10,2013-10-01 20:25:00,
2013-10-01 13:40:00,54.6,43.0,29.98,SSE,166,7.0,17.0,66,0.00,,,0.18,weatherlink.com 1.10,2013-10-01 20:40:00,
2013-10-01 13:55:00,54.9,44.0,29.98,ENE,63,0.0,21.0,68,0.00,,,0.18,weatherlink.com 1.10,2013-10-01 20:55:00,
2013-10-01 14:10:00,55.6,46.0,29.98,SSW,212,1.0,14.0,71,0.00,,,0.18,weatherlink.com 1.10,2013-10-01 21:10:00,
2013-10-01 14:40:00,55.8,45.0,29.98,South,169,9.0,19.0,68,0.00,,,0.18,weatherlink.com 1.10,2013-10-01 21:40:00,
2013-10-01 14:55:00,55.9,45.0,29.99,SSE,152,5.0,15.0,67,0.00,,,0.18,weatherlink.com 1.10,2013-10-01 21:55:00,
2013-10-01 15:10:00,55.9,45.0,29.99,South,189,1.0,10.0,67,0.00,,,0.18,weatherlink.com 1.10,2013-10-01 22:10:00,
2013-10-01 15:25:00,57.1,46.0,29.99,SE,139,1.0,11.0,67,0.00,,,0.18,weatherlink.com 1.10,2013-10-01 22:25:00,
2013-10-01 15:40:00,57.3,46.0,29.99,SSE,154,0.0,10.0,65,0.00,,,0.18,weatherlink.com 1.10,2013-10-01 22:40:00,
2013-10-01 15:55:00,56.5,44.0,29.99,South,187,5.0,15.0,63,0.00,,,0.18,weatherlink.com 1.10,2013-10-01 22:55:00,
2013-10-01 16:10:00,55.4,44.0,30.00,South,190,6.0,15.0,66,0.00,,,0.18,weatherlink.com 1.10,2013-10-01 23:10:00,
2013-10-01 16:25:00,55.1,45.0,30.01,South,186,2.0,11.0,68,0.00,,,0.18,weatherlink.com 1.10,2013-10-01 23:25:00,
2013-10-01 16:40:00,54.6,46.0,30.02,SSW,192,4.0,12.0,72,0.00,,,0.18,weatherlink.com 1.10,2013-10-01 23:40:00,
2013-10-01 16:55:00,54.2,47.0,30.02,SE,144,3.0,9.0,78,0.00,,,0.18,weatherlink.com 1.10,2013-10-01 23:55:00,
2013-10-01 17:10:00,53.5,47.0,30.02,SSW,203,0.0,9.0,79,0.00,,,0.18,weatherlink.com 1.10,2013-10-02 00:10:00,
2013-10-01 17:25:00,53.2,48.0,30.02,SE,140,2.0,5.0,81,0.00,,,0.18,weatherlink.com 1.10,2013-10-02 00:25:00,
2013-10-01 17:40:00,52.9,48.0,30.03,ENE,74,1.0,3.0,83,0.00,,,0.18,weatherlink.com 1.10,2013-10-02 00:40:00,
2013-10-01 17:55:00,52.4,48.0,30.03,SE,126,0.0,2.0,84,0.00,,,0.18,weatherlink.com 1.10,2013-10-02 00:55:00,
2013-10-01 18:10:00,52.2,48.0,30.03,ESE,107,0.0,6.0,85,0.00,,,0.18,weatherlink.com 1.10,2013-10-02 01:10:00,
2013-10-01 18:25:00,53.0,48.0,30.03,South,175,0.0,4.0,83,0.00,,,0.18,weatherlink.com 1.10,2013-10-02 01:25:00,
2013-10-01 18:40:00,52.2,47.0,30.03,SSE,153,0.0,6.0,83,0.00,,,0.18,weatherlink.com 1.10,2013-10-02 01:40:00,
2013-10-01 18:55:00,51.3,47.0,30.03,NNE,14,0.0,5.0,86,0.00,,,0.18,weatherlink.com 1.10,2013-10-02 01:55:00,
2013-10-01 19:10:00,50.8,47.0,30.04,South,170,8.0,8.0,86,0.00,,,0.18,weatherlink.com 1.10,2013-10-02 02:10:00,
2013-10-01 19:25:00,50.7,47.0,30.04,NE,36,0.0,3.0,87,0.00,,,0.18,weatherlink.com 1.10,2013-10-02 02:25:00,
2013-10-01 19:40:00,50.8,47.0,30.04,South,177,1.0,7.0,87,0.00,,,0.18,weatherlink.com 1.10,2013-10-02 02:40:00,
2013-10-01 19:55:00,51.2,47.0,30.05,South,169,0.0,9.0,86,0.00,,,0.18,weatherlink.com 1.10,2013-10-02 02:55:00,
2013-10-01 20:10:00,51.3,47.0,30.05,SSW,210,0.0,7.0,85,0.00,,,0.18,weatherlink.com 1.10,2013-10-02 03:10:00,
2013-10-01 20:25:00,51.4,47.0,30.05,ENE,61,0.0,10.0,84,0.00,,,0.18,weatherlink.com 1.10,2013-10-02 03:25:00,
2013-10-01 20:40:00,51.3,47.0,30.05,SSE,159,0.0,7.0,84,0.00,,,0.18,weatherlink.com 1.10,2013-10-02 03:40:00,
2013-10-01 20:55:00,51.6,47.0,30.06,South,184,0.0,8.0,84,0.00,,,0.18,weatherlink.com 1.10,2013-10-02 03:55:00,
2013-10-01 21:10:00,51.9,47.0,30.06,South,180,0.0,7.0,83,0.00,,,0.18,weatherlink.com 1.10,2013-10-02 04:10:00,
2013-10-01 21:25:00,52.1,47.0,30.07,ESE,115,2.0,9.0,83,0.00,,,0.18,weatherlink.com 1.10,2013-10-02 04:25:00,
2013-10-01 21:40:00,52.1,47.0,30.07,South,188,1.0,13.0,83,0.00,,,0.18,weatherlink.com 1.10,2013-10-02 04:40:00,
2013-10-01 21:55:00,52.0,47.0,30.07,SSE,155,1.0,11.0,83,0.00,,,0.18,weatherlink.com 1.10,2013-10-02 04:55:00,
2013-10-01 22:10:00,52.0,47.0,30.07,South,180,0.0,10.0,83,0.00,,,0.18,weatherlink.com 1.10,2013-10-02 05:10:00,
2013-10-01 22:25:00,52.0,47.0,30.07,South,173,1.0,9.0,83,0.00,,,0.18,weatherlink.com 1.10,2013-10-02 05:25:00,
2013-10-01 22:40:00,52.0,47.0,30.07,SSE,151,3.0,8.0,82,0.00,,,0.18,weatherlink.com 1.10,2013-10-02 05:40:00,
2013-10-01 22:55:00,51.9,47.0,30.07,SW,214,6.0,13.0,83,0.00,,,0.18,weatherlink.com 1.10,2013-10-02 05:55:00,
2013-10-01 23:10:00,51.7,47.0,30.07,South,178,1.0,13.0,84,0.00,,,0.18,weatherlink.com 1.10,2013-10-02 06:10:00,
2013-10-01 23:26:00,51.8,47.0,30.07,SSW,192,4.0,13.0,84,0.00,,,0.18,weatherlink.com 1.10,2013-10-02 06:26:00,
2013-10-01 23:41:00,51.7,47.0,30.07,South,188,6.0,9.0,84,0.00,,,0.18,weatherlink.com 1.10,2013-10-02 06:41:00,
2013-10-01 23:56:00,51.7,47.0,30.07,South,173,1.0,13.0,83,0.00,,,0.18,weatherlink.com 1.10,2013-10-02 06:56:00,